Voltar ao catálogo

STARLINK-31049

AtivoComunicaçõesVLEO
NORAD 58543·PAYLOAD·🇺🇸 United States

Lançado Dec 8, 2023 de Vandenberg Space Force Base

Loading…

Próximas Passagens (próximas 24 horas)

TLE

AtualizadoSource: CelesTrak SupGP

Época: Sep 14, 2026, 20:56 UTC

1 58543C 23192N   26257.87270833  .00046741  00000+0  13812-2 0  2577
2 58543  53.1570 259.9274 0001273  98.0658  45.3945 15.34361792    17

Acompanhe STARLINK-31049 em tempo real com AllMySat

Download on the App Store